Temperature
-1 -1 -1 -1 -1 -1 -0 -0 -0 -0 -0 -0 -0 -0 -0 -0 -0 -0 -1 -1 -1 -1 -1 -1 -1 -1 -1 -1 -1 -1 -1 -1 -1 -1 -1 -0 -0 -0 -0 -0 -0 -0 0
-2 -2 -2 -1 -1 -1 -1 -1 -1 -1 -1 -1 -1 -1 -1 -1 -1 -1 -1 -1 -1 -1 -1 -1 -1 -1 -2 -2 -2 -2 -2 -1 -2 -2 -1 -1 -1 -1 -1 -1 -1 -1 -1
-3 -2 -2 -2 -2 -2 -2 -2 -1 -1 -1 -1 -1 -1 -1 -1 -1 -1 -2 -2 -2 -2 -2 -2 -2 -2 -2 -2 -2 -2 -2 -2 -2 -2 -2 -2 -2 -1 -2 -2 -2 -2 -2
-3 -3 -3 -3 -3 -2 -2 -2 -2 -2 -2 -2 -2 -2 -2 -2 -2 -2 -2 -2 -2 -2 -2 -2 -2 -3 -3 -3 -3 -3 -3 -3 -3 -3 -3 -2 -2 -2 -3 -3 -3 -2 -2
-4 -4 -4 -3 -3 -3 -3 -3 -3 -3 -3 -3 -3 -3 -3 -3 -2 -3 -3 -3 -3 -3 -3 -3 -3 -3 -3 -3 -3 -3 -3 -3 -3 -3 -3 -3 -3 -3 -3 -3 -3 -3 -3
-5 -5 -4 -4 -4 -4 -4 -4 -4 -4 -4 -4 -4 -4 -3 -3 -3 -3 -4 -4 -4 -4 -4 -4 -4 -4 -4 -4 -4 -4 -4 -4 -4 -4 -4 -4 -3 -3 -4 -4 -4 -4 -4
-5 -5 -5 -5 -5 -5 -5 -5 -5 -5 -4 -4 -4 -4 -4 -4 -4 -4 -4 -4 -4 -4 -4 -4 -4 -4 -4 -4 -4 -4 -4 -4 -4 -4 -4 -4 -4 -4 -4 -4 -4 -4 -4
-6 -6 -6 -6 -6 -6 -6 -5 -5 -5 -5 -5 -5 -5 -5 -5 -5 -5 -5 -5 -5 -5 -5 -5 -5 -5 -5 -5 -5 -5 -5 -5 -5 -5 -5 -4 -4 -4 -4 -5 -5 -5 -5
-7 -7 -7 -7 -7 -6 -6 -6 -6 -6 -6 -6 -6 -6 -6 -6 -6 -6 -6 -6 -6 -6 -5 -5 -5 -5 -5 -5 -6 -5 -5 -5 -5 -5 -5 -5 -5 -5 -5 -5 -6 -6 -6
-8 -8 -8 -7 -7 -7 -7 -7 -7 -7 -7 -7 -7 -7 -7 -6 -6 -6 -6 -7 -6 -6 -6 -6 -6 -6 -6 -6 -6 -6 -6 -5 -5 -5 -5 -5 -5 -5 -6 -6 -6 -6 -6
-9 -9 -8 -8 -8 -8 -8 -8 -8 -8 -8 -8 -8 -7 -7 -7 -7 -7 -7 -7 -7 -7 -7 -7 -6 -6 -6 -6 -6 -6 -6 -6 -6 -6 -6 -6 -6 -6 -6 -6 -6 -6 -6
-9 -9 -9 -9 -9 -9 -9 -9 -9 -9 -9 -9 -8 -8 -8 -8 -8 -8 -8 -8 -8 -8 -7 -7 -7 -7 -7 -7 -7 -7 -6 -6 -6 -6 -6 -6 -6 -6 -6 -6 -7 -7 -7
-10 -10 -10 -9 -9 -9 -9 -9 -9 -9 -9 -9 -9 -9 -9 -8 -8 -8 -8 -8 -8 -8 -8 -8 -7 -7 -7 -7 -7 -7 -7 -7 -7 -7 -7 -7 -7 -7 -7 -7 -7 -7 -7
-11 -10 -10 -10 -10 -10 -10 -10 -10 -10 -10 -10 -10 -10 -10 -9 -9 -9 -9 -9 -8 -9 -8 -8 -8 -8 -8 -8 -8 -8 -8 -8 -8 -7 -7 -7 -7 -7 -7 -7 -8 -8 -8
-11 -11 -11 -11 -11 -10 -10 -11 -10 -10 -11 -11 -10 -10 -10 -10 -10 -9 -9 -9 -9 -9 -9 -9 -9 -9 -9 -9 -8 -8 -8 -8 -8 -8 -8 -8 -8 -8 -8 -8 -8 -8 -9
-12 -12 -12 -11 -11 -11 -11 -11 -11 -11 -11 -11 -11 -11 -11 -11 -10 -10 -10 -10 -9 -9 -9 -9 -9 -9 -9 -9 -9 -9 -9 -9 -9 -9 -9 -9 -9 -9 -9 -9 -9 -9 -9
-13 -12 -12 -12 -12 -12 -12 -12 -12 -12 -11 -11 -11 -11 -11 -11 -11 -11 -10 -10 -10 -10 -10 -10 -10 -10 -10 -10 -10 -10 -9 -9 -9 -9 -9 -9 -9 -9 -9 -9 -10 -10 -10
-13 -13 -13 -13 -13 -13 -13 -13 -13 -12 -12 -12 -12 -12 -11 -11 -11 -11 -11 -11 -11 -11 -11 -11 -11 -11 -11 -10 -10 -10 -10 -10 -10 -10 -10 -10 -10 -10 -10 -10 -10 -10 -10
-14 -14 -13 -13 -13 -13 -13 -13 -13 -13 -13 -13 -12 -12 -12 -12 -12 -12 -12 -12 -11 -11 -11 -11 -11 -11 -11 -11 -11 -11 -11 -11 -10 -10 -10 -10 -10 -10 -10 -10 -11 -11 -11
-14 -14 -14 -14 -14 -14 -14 -13 -13 -13 -13 -13 -13 -12 -12 -12 -12 -12 -12 -12 -12 -12 -12 -12 -11 -11 -11 -11 -11 -11 -11 -11 -11 -11 -11 -11 -11 -11 -11 -11 -11 -11 -11
-15 -14 -14 -14 -14 -14 -14 -14 -14 -14 -13 -13 -13 -13 -13 -13 -13 -12 -12 -12 -12 -12 -12 -12 -12 -12 -12 -12 -12 -11 -11 -11 -11 -11 -11 -11 -11 -11 -11 -11 -12 -12 -12
-15 -15 -15 -15 -14 -14 -14 -14 -14 -14 -14 -13 -13 -13 -13 -13 -13 -13 -13 -12 -12 -12 -12 -12 -12 -12 -12 -12 -12 -12 -12 -12 -12 -12 -12 -12 -12 -12 -12 -12 -12 -12 -12
-15 -15 -15 -15 -15 -15 -15 -15 -15 -14 -14 -14 -14 -13 -13 -13 -13 -13 -13 -13 -13 -12 -13 -13 -13 -12 -12 -12 -12 -12 -12 -12 -12 -12 -12 -12 -12 -12 -12 -12 -12 -13 -13
-15 -15 -15 -15 -15 -15 -15 -15 -15 -15 -14 -14 -14 -14 -14 -14 -13 -13 -13 -13 -13 -13 -13 -13 -13 -13 -13 -12 -12 -12 -12 -12 -12 -12 -12 -12 -12 -12 -13 -13 -13 -13 -13
-16 -16 -16 -16 -16 -16 -16 -15 -15 -15 -15 -15 -14 -14 -14 -14 -14 -13 -13 -13 -13 -13 -13 -13 -13 -13 -13 -13 -13 -13 -13 -13 -13 -13 -13 -13 -13 -13 -13 -13 -13 -13 -13
-16 -16 -16 -16 -16 -16 -16 -16 -16 -15 -15 -15 -15 -14 -14 -14 -14 -14 -14 -14 -14 -14 -13 -13 -13 -13 -13 -13 -13 -13 -13 -13 -13 -13 -13 -13 -13 -13 -13 -13 -13 -14 -14
Wind_Speed
5 5 6 7 7 7 8 8 8 8 8 8 9 9 10 10 10 10 10 10 11 10 10 10 10 9 7 7 7 7 8 8 9 6 5 5 7 7 6 8 8 8 8
5 5 6 6 6 7 8 8 8 8 8 9 9 10 10 11 11 11 12 11 12 12 12 11 11 9 10 8 8 9 9 9 8 8 6 6 7 7 7 7 7 7 8
5 5 5 6 6 7 8 8 8 8 9 9 9 10 10 11 11 12 12 12 12 13 12 13 12 11 12 9 10 9 9 8 8 8 7 6 5 6 6 6 7 6 7
6 5 6 6 7 7 8 8 8 8 9 9 10 10 11 11 11 11 12 12 12 12 12 13 13 13 13 12 10 11 10 10 9 8 7 6 5 6 6 6 6 5 6
6 6 6 6 7 7 7 7 7 8 9 9 9 10 10 10 10 11 11 12 12 12 12 13 13 15 15 13 11 11 10 10 9 8 8 7 6 6 6 6 6 5 6
7 7 7 6 6 6 7 7 7 8 8 9 10 10 10 9 11 13 12 11 12 13 12 12 13 15 16 17 17 16 14 13 11 10 9 10 10 8 7 6 6 6 6
7 7 7 7 7 7 7 7 8 8 8 9 9 10 10 11 12 13 14 11 12 12 12 12 10 11 14 13 15 17 16 17 16 12 12 12 11 10 9 9 8 8 7
7 7 7 7 7 7 7 7 8 8 8 8 9 9 10 10 12 13 14 12 11 12 12 12 12 12 12 13 12 12 13 14 14 13 12 11 10 9 10 9 8 7 6
7 7 7 7 7 8 8 8 8 8 8 8 8 9 10 11 12 13 13 10 10 12 12 12 13 13 15 15 12 12 11 11 12 14 14 12 12 13 11 7 7 7 7
8 8 8 8 8 8 9 9 8 8 8 8 9 9 10 11 12 13 14 9 10 10 10 11 14 15 15 15 13 12 12 11 9 9 10 10 11 12 14 12 10 9 6
8 8 8 8 8 8 8 8 8 8 8 8 9 9 9 10 12 14 14 10 10 9 9 9 10 15 16 16 15 12 13 10 9 9 8 8 8 8 9 10 9 9 8
8 8 8 9 8 7 8 8 8 7 8 8 8 8 7 8 10 12 14 14 12 10 9 9 10 14 15 16 14 13 14 11 8 7 8 8 8 8 8 9 9 9 8
8 8 8 9 8 7 7 7 7 6 6 6 6 7 7 6 7 11 13 14 14 11 9 11 12 13 14 13 14 13 11 9 8 8 8 8 7 7 7 6 6 6 6
8 8 8 8 8 7 6 6 6 6 6 6 7 7 7 7 7 6 7 9 11 11 9 11 13 13 11 10 10 9 8 8 8 8 7 6 5 6 6 6 6 6 5
8 8 8 7 7 7 6 6 7 7 7 7 7 7 7 7 8 9 8 7 7 8 7 6 6 7 7 7 7 7 7 7 7 7 7 6 6 6 6 6 6 6 6
7 7 7 6 6 6 6 6 8 9 11 12 12 10 9 11 11 11 12 11 10 9 7 6 7 7 7 7 7 7 7 7 7 7 7 7 7 7 7 6 6 7 7
8 8 7 7 6 6 6 6 7 7 9 11 12 12 12 12 12 12 11 11 11 9 7 7 7 7 7 7 7 7 7 7 6 7 7 7 7 7 7 7 7 8 8
8 8 7 6 6 6 6 6 6 7 7 6 8 11 11 11 11 11 11 9 7 7 6 7 7 7 6 7 7 6 6 6 6 7 7 7 7 8 8 8 8 9 8
7 6 6 6 6 6 6 6 6 7 7 7 6 7 8 9 9 9 8 6 6 6 6 6 6 6 6 6 6 6 7 7 7 7 7 7 7 7 8 8 8 10 9
6 8 7 6 6 6 6 6 6 6 6 6 6 6 5 5 5 6 5 5 5 5 6 6 6 6 6 6 6 6 7 7 7 7 7 7 7 8 9 9 9 9 9
6 6 8 6 5 5 5 5 6 6 6 6 6 7 8 5 5 6 5 5 5 6 6 6 6 6 6 6 6 7 8 7 7 7 7 7 7 8 8 8 9 9 8
5 5 5 5 5 5 5 5 5 5 6 6 6 6 8 6 5 5 5 5 5 5 6 5 6 6 6 6 7 7 7 8 7 7 7 7 7 8 8 8 8 8 8
5 6 6 5 5 6 6 5 5 5 6 6 6 5 5 5 5 5 5 5 5 5 5 5 6 6 6 7 7 8 8 8 8 8 8 8 8 8 8 9 10 10 9
6 6 6 6 5 5 5 6 5 5 6 6 6 5 5 5 5 6 6 5 5 5 5 5 6 7 8 7 8 8 9 10 9 9 11 10 9 9 9 9 9 10 10
6 6 6 6 6 5 5 6 6 6 6 6 6 6 6 5 5 6 5 5 5 5 6 6 6 7 8 9 9 9 11 12 12 11 10 9 10 10 9 9 9 9 9
6 6 6 6 5 5 5 6 6 6 6 6 6 6 6 6 6 6 5 5 5 5 5 5 6 7 8 8 9 10 12 12 13 13 10 9 9 9 9 9 10 10 10
Wind_Direction
259 248 247 248 246 248 243 241 241 241 238 235 233 230 228 226 224 226 228 227 227 229 228 229 233 236 237 232 232 231 231 234 243 253 254 245 244 249 252 253 257 259 258
284 264 255 255 252 252 248 245 244 244 243 240 238 235 232 231 227 226 228 228 228 230 230 230 232 231 235 234 230 231 231 232 239 248 253 247 249 246 247 250 255 257 259
297 280 268 264 258 257 254 250 248 246 245 243 240 238 236 235 232 229 229 229 230 232 232 231 231 229 231 233 232 233 232 232 235 241 248 249 252 243 246 253 255 257 259
302 291 279 274 268 266 261 256 251 248 246 244 242 241 240 238 236 233 230 230 232 233 232 232 231 230 231 230 232 233 232 229 229 231 238 239 242 239 240 247 255 257 259
296 290 284 281 279 275 268 265 259 253 250 248 246 245 243 239 236 233 232 231 233 234 234 233 233 233 233 230 231 231 231 228 226 228 232 234 235 231 235 241 249 258 262
292 288 288 285 282 276 272 269 264 259 255 251 246 245 244 241 237 236 237 237 235 235 236 237 236 234 234 234 236 234 233 231 226 228 230 231 231 234 236 236 242 254 262
291 290 289 285 280 277 276 272 266 263 260 255 252 249 248 247 241 239 236 239 238 236 235 236 236 234 234 235 238 235 236 237 233 231 234 234 232 230 229 233 236 243 253
288 288 288 284 280 279 275 272 271 266 260 258 257 255 254 253 245 242 240 240 241 239 237 236 236 236 231 231 235 235 235 237 233 232 235 234 233 228 226 233 240 250 263
293 293 292 288 282 279 275 273 272 270 267 263 262 258 257 257 250 245 245 242 241 241 238 236 236 236 233 231 233 234 235 239 236 235 236 234 231 227 223 223 225 229 249
297 296 295 288 281 275 274 275 274 270 267 265 263 260 259 260 255 249 245 241 240 242 240 237 235 236 234 229 230 231 233 236 232 230 231 231 229 225 222 222 222 226 241
300 298 295 291 283 276 274 273 271 268 266 264 265 264 261 260 257 252 246 238 236 239 240 237 234 231 233 232 233 235 235 234 230 227 229 228 226 224 224 225 227 227 232
303 299 297 294 287 280 274 274 271 266 263 264 265 267 265 262 258 253 247 242 239 238 241 241 236 231 232 233 234 235 231 227 225 222 222 223 221 222 223 225 229 233 239
303 301 300 298 291 281 275 274 272 265 261 263 263 266 269 268 262 255 250 246 240 240 243 242 241 234 233 234 235 231 224 224 221 223 224 225 224 221 217 219 222 227 240
302 301 301 300 296 289 280 274 269 265 263 263 264 266 269 269 266 260 248 246 242 241 244 242 240 234 231 232 230 227 225 224 222 224 226 224 219 216 216 215 219 219 232
302 300 301 298 296 294 285 277 272 266 265 267 267 267 268 268 266 266 262 250 243 238 236 236 228 225 222 222 221 223 221 217 221 221 221 219 218 217 218 216 219 220 230
302 302 302 300 298 296 293 289 280 275 277 274 273 273 272 272 277 271 265 260 255 243 236 229 227 224 221 219 219 220 220 220 220 219 219 218 219 219 220 220 219 223 229
298 299 300 298 296 295 295 293 295 290 280 276 274 274 274 275 274 271 266 261 252 237 234 230 228 225 222 222 223 223 223 221 218 217 219 218 218 218 219 221 222 226 232
297 296 297 296 294 291 290 292 292 294 293 288 281 277 277 276 276 273 267 262 248 234 232 231 229 226 224 222 224 224 223 219 218 219 220 221 219 218 219 222 225 228 230
302 299 298 297 294 291 289 288 289 289 290 291 290 289 284 282 280 276 269 255 246 238 235 234 231 229 228 225 224 225 224 223 222 221 222 223 222 222 224 225 227 229 232
304 303 305 300 296 294 292 290 290 292 292 293 294 292 291 287 278 277 266 257 250 246 244 240 236 233 231 229 226 225 225 226 224 224 225 224 224 225 227 228 229 229 231
308 308 309 304 297 294 293 293 292 290 291 291 290 293 292 280 273 273 271 259 251 248 248 244 240 239 235 232 229 227 227 229 227 226 226 226 225 227 230 231 231 232 231
310 308 306 301 300 299 297 297 298 295 294 294 296 300 302 294 279 269 267 265 257 252 248 244 241 240 237 233 230 230 229 230 229 226 226 227 227 228 229 230 231 231 230
311 308 307 306 305 308 309 307 304 302 301 300 300 301 301 294 289 284 275 269 263 260 255 245 242 243 241 236 233 233 232 232 231 229 227 228 228 228 228 229 229 230 229
310 308 307 307 307 306 305 305 304 303 302 302 302 299 296 295 292 291 289 282 269 262 258 251 248 246 245 245 242 239 237 236 234 231 230 230 229 229 228 227 227 227 229
309 308 308 308 306 304 303 304 305 306 305 304 303 303 300 296 294 294 292 289 281 272 266 261 254 250 246 246 248 246 243 241 242 239 232 229 228 226 225 225 225 227 229
311 311 311 310 307 304 302 302 303 305 304 304 304 302 301 299 297 296 295 288 280 277 275 273 265 259 257 253 251 249 249 248 245 243 238 229 226 224 222 224 225 225 228
Height
1470 1470 1470 1471 1471 1471 1472 1472 1473 1474 1474 1475 1476 1477 1478 1479 1480 1481 1482 1483 1484 1485 1486 1488 1489 1490 1491 1492 1493 1494 1495 1497 1496 1496 1497 1497 1498 1498 1498 1498 1498 1497 1497
1465 1465 1465 1465 1466 1466 1466 1466 1467 1467 1468 1469 1469 1470 1471 1472 1473 1474 1475 1476 1477 1478 1479 1480 1481 1483 1484 1485 1486 1487 1489 1490 1490 1490 1490 1491 1492 1492 1492 1492 1492 1492 1492
1461 1460 1460 1460 1460 1460 1460 1460 1461 1461 1461 1462 1463 1463 1464 1465 1466 1467 1468 1469 1470 1471 1472 1473 1474 1476 1477 1478 1480 1481 1482 1483 1484 1485 1484 1485 1485 1486 1487 1487 1486 1486 1485
1456 1456 1455 1455 1455 1454 1454 1454 1454 1454 1455 1455 1456 1456 1457 1458 1459 1460 1461 1461 1462 1463 1465 1466 1467 1468 1470 1471 1473 1474 1475 1476 1477 1478 1478 1479 1479 1480 1481 1481 1480 1480 1480
1452 1451 1450 1450 1449 1449 1448 1448 1448 1448 1448 1448 1449 1449 1450 1450 1451 1452 1453 1454 1455 1456 1457 1458 1459 1461 1462 1464 1466 1467 1469 1469 1470 1471 1471 1472 1473 1474 1474 1475 1475 1475 1474
1448 1446 1446 1445 1444 1443 1443 1442 1442 1441 1441 1442 1441 1442 1442 1442 1443 1444 1445 1446 1447 1448 1449 1450 1452 1453 1455 1457 1458 1460 1461 1462 1462 1464 1464 1465 1466 1468 1469 1470 1470 1469 1469
1443 1442 1441 1440 1439 1438 1437 1436 1435 1435 1435 1435 1435 1434 1434 1435 1436 1437 1438 1439 1440 1440 1441 1443 1444 1445 1447 1449 1450 1451 1453 1454 1456 1457 1457 1458 1460 1462 1463 1464 1464 1464 1463
1439 1437 1436 1435 1433 1433 1431 1430 1430 1429 1429 1428 1428 1427 1427 1428 1429 1430 1431 1432 1432 1433 1434 1435 1436 1437 1439 1441 1442 1443 1444 1446 1448 1450 1451 1452 1454 1456 1457 1458 1458 1459 1458
1434 1432 1431 1429 1428 1427 1425 1424 1424 1423 1422 1421 1421 1421 1420 1420 1422 1423 1424 1424 1424 1425 1426 1427 1428 1430 1432 1434 1435 1436 1437 1438 1440 1442 1444 1446 1447 1449 1450 1452 1452 1453 1452
1429 1427 1426 1424 1422 1421 1420 1418 1418 1417 1415 1415 1414 1414 1414 1414 1414 1415 1416 1417 1417 1418 1419 1420 1421 1422 1425 1426 1428 1429 1430 1431 1434 1435 1437 1438 1440 1442 1443 1445 1445 1446 1446
1424 1422 1421 1419 1418 1416 1414 1413 1412 1411 1410 1409 1408 1407 1407 1407 1407 1408 1408 1409 1410 1410 1411 1412 1414 1415 1417 1419 1421 1422 1423 1426 1428 1429 1430 1431 1433 1435 1436 1438 1439 1440 1440
1420 1418 1416 1414 1413 1411 1409 1407 1406 1405 1404 1403 1402 1401 1400 1400 1400 1400 1401 1402 1403 1404 1404 1405 1407 1409 1410 1412 1414 1415 1418 1420 1421 1422 1423 1424 1426 1427 1429 1431 1432 1433 1434
1416 1414 1411 1409 1407 1406 1404 1402 1401 1400 1399 1397 1396 1395 1394 1394 1393 1393 1394 1394 1396 1397 1397 1399 1400 1402 1404 1406 1407 1409 1411 1413 1414 1415 1416 1417 1419 1421 1423 1424 1425 1427 1428
1412 1409 1407 1405 1403 1401 1399 1398 1396 1395 1393 1392 1391 1390 1389 1388 1387 1387 1387 1388 1389 1390 1392 1393 1394 1395 1397 1399 1401 1402 1404 1406 1407 1408 1409 1411 1413 1415 1416 1418 1419 1420 1421
1407 1405 1403 1400 1398 1396 1394 1393 1391 1389 1388 1387 1386 1385 1384 1382 1382 1382 1382 1382 1383 1384 1385 1386 1387 1388 1390 1391 1393 1395 1397 1399 1400 1401 1403 1405 1407 1408 1410 1412 1413 1414 1415
1403 1401 1398 1396 1394 1392 1390 1388 1386 1385 1383 1382 1381 1380 1378 1378 1377 1377 1377 1377 1377 1378 1379 1379 1380 1381 1383 1384 1386 1388 1390 1392 1393 1395 1397 1399 1400 1402 1404 1405 1407 1407 1408
1400 1397 1395 1392 1390 1388 1386 1383 1381 1379 1378 1377 1375 1374 1373 1372 1372 1372 1371 1371 1372 1372 1373 1373 1374 1375 1376 1378 1380 1382 1383 1385 1387 1389 1391 1393 1394 1396 1397 1399 1400 1401 1402
1396 1393 1391 1389 1387 1384 1382 1380 1378 1375 1373 1371 1370 1369 1368 1367 1367 1366 1367 1367 1366 1367 1367 1367 1368 1369 1371 1372 1374 1376 1377 1379 1381 1383 1385 1387 1388 1389 1391 1392 1393 1394 1395
1392 1389 1387 1385 1383 1381 1378 1376 1374 1372 1370 1367 1365 1364 1364 1363 1362 1361 1361 1361 1361 1361 1361 1361 1362 1363 1365 1366 1368 1370 1371 1373 1375 1377 1378 1380 1382 1383 1384 1385 1387 1388 1389
1388 1386 1384 1382 1379 1377 1375 1373 1371 1368 1366 1364 1362 1361 1360 1359 1357 1357 1356 1356 1356 1355 1356 1356 1357 1358 1359 1360 1362 1364 1365 1367 1369 1370 1372 1374 1375 1377 1378 1379 1380 1381 1382
1386 1383 1381 1379 1376 1374 1372 1369 1367 1365 1363 1361 1359 1358 1357 1356 1354 1353 1352 1352 1351 1350 1351 1351 1351 1352 1354 1355 1356 1358 1359 1361 1362 1364 1365 1367 1368 1370 1371 1372 1373 1374 1375
1384 1381 1378 1376 1374 1371 1369 1367 1365 1363 1360 1358 1356 1355 1354 1352 1351 1349 1348 1347 1347 1346 1346 1346 1347 1347 1348 1349 1350 1352 1353 1354 1355 1357 1358 1360 1361 1363 1364 1365 1366 1368 1369
1381 1378 1376 1373 1371 1369 1366 1364 1362 1360 1358 1356 1354 1352 1350 1348 1347 1345 1344 1343 1343 1342 1342 1342 1342 1342 1343 1344 1344 1345 1346 1347 1348 1350 1351 1353 1354 1355 1357 1358 1359 1360 1361
1379 1376 1373 1371 1368 1366 1364 1361 1359 1357 1355 1353 1351 1349 1347 1345 1343 1341 1340 1339 1338 1337 1337 1337 1337 1337 1337 1338 1338 1339 1340 1340 1342 1343 1344 1345 1346 1348 1349 1350 1351 1353 1354
1377 1374 1371 1368 1366 1363 1361 1359 1356 1354 1352 1350 1348 1346 1344 1342 1340 1338 1337 1335 1334 1333 1332 1332 1332 1332 1332 1332 1332 1333 1333 1334 1335 1336 1337 1338 1339 1340 1342 1343 1344 1346 1347
1375 1372 1369 1366 1364 1361 1358 1356 1354 1352 1349 1347 1345 1343 1341 1339 1337 1335 1333 1331 1330 1329 1328 1328 1327 1327 1326 1326 1326 1327 1327 1328 1328 1329 1330 1331 1331 1332 1334 1335 1337 1338 1340